• en Suisse
  • Liste des pays
  • À 7 jours
  • Température de l'eau
  • Carte satellitaire
  • Carte météo
  • Widgets météo
  • user-avatar
    Se connecter

    Météo par heure à Bukavu

    Ce jour, 21 Juin, Jeudi

    Heure Température Précipitation Vent Pression Humidité
    00:00 +18°C° 0 mm 0 m/s 691 mmHg 96%
    01:00 +18°C° 0 mm 0 m/s 690 mmHg 97%
    02:00 +17°C° 0 mm 0 m/s 690 mmHg 97%
    03:00 +17°C° 0 mm 0 m/s 690 mmHg 97%
    04:00 +17°C° 0 mm 0 m/s 690 mmHg 98%
    05:00 +17°C° 0 mm 0 m/s 690 mmHg 98%
    06:00 +20°C° 0 mm 1 m/s 691 mmHg 94%
    07:00 +21°C° 0 mm 1 m/s 691 mmHg 91%
    08:00 +23°C° 0 mm 1 m/s 692 mmHg 86%
    09:00 +26°C° 0 mm 1 m/s 692 mmHg 73%
    10:00 +28°C° 0 mm 1 m/s 692 mmHg 60%
    11:00 +31°C° 0 mm 1 m/s 692 mmHg 48%
    12:00 +31°C° 0 mm 1 m/s 691 mmHg 49%
    13:00 +29°C° 0 mm 0 m/s 691 mmHg 51%
    14:00 +28°C° 0 mm 0 m/s 690 mmHg 57%
    15:00 +27°C° 0 mm 0 m/s 689 mmHg 61%
    16:00 +26°C° 0 mm 0 m/s 689 mmHg 66%
    17:00 +25°C° 0 mm 0 m/s 689 mmHg 70%
    18:00 +23°C° 0,5 mm 0 m/s 689 mmHg 77%
    19:00 +22°C° 0,5 mm 0 m/s 689 mmHg 84%
    20:00 +22°C° 0,5 mm 1 m/s 689 mmHg 91%
    21:00 +21°C° 0,5 mm 1 m/s 690 mmHg 93%
    22:00 +21°C° 0,5 mm 1 m/s 690 mmHg 94%
    23:00 +20°C° 0,5 mm 1 m/s 690 mmHg 96%

    Demain, 22 Juin, Vendredi

    Heure Température Précipitation Vent Pression Humidité
    00:00 +18°C° 0,2 mm 0 m/s 690 mmHg 96%
    01:00 +18°C° 0,2 mm 0 m/s 690 mmHg 96%
    02:00 +17°C° 0,2 mm 0 m/s 690 mmHg 97%
    03:00 +17°C° 0 mm 0 m/s 690 mmHg 97%
    04:00 +17°C° 0 mm 0 m/s 690 mmHg 97%
    05:00 +17°C° 0 mm 0 m/s 690 mmHg 98%
    06:00 +18°C° 0 mm 0 m/s 690 mmHg 95%
    07:00 +19°C° 0 mm 0 m/s 691 mmHg 92%
    08:00 +22°C° 0 mm 1 m/s 691 mmHg 89%
    09:00 +25°C° 0,1 mm 1 m/s 691 mmHg 78%
    10:00 +27°C° 0,1 mm 1 m/s 691 mmHg 66%
    11:00 +29°C° 0,1 mm 1 m/s 691 mmHg 55%
    12:00 +29°C° 0,2 mm 1 m/s 691 mmHg 56%
    13:00 +30°C° 0,2 mm 1 m/s 690 mmHg 57%
    14:00 +30°C° 0,2 mm 1 m/s 690 mmHg 58%
    15:00 +29°C° 0,4 mm 1 m/s 689 mmHg 66%
    16:00 +28°C° 0,4 mm 1 m/s 689 mmHg 74%
    17:00 +27°C° 0,4 mm 1 m/s 688 mmHg 82%
    18:00 +25°C° 0,2 mm 1 m/s 688 mmHg 87%
    19:00 +23°C° 0,2 mm 1 m/s 689 mmHg 91%
    20:00 +21°C° 0,2 mm 1 m/s 689 mmHg 96%
    21:00 +21°C° 0,4 mm 1 m/s 690 mmHg 97%
    22:00 +21°C° 0,4 mm 1 m/s 690 mmHg 98%
    23:00 +20°C° 0,4 mm 1 m/s 690 mmHg 98%

    Après-demain, 23 Juin, Samedi

    Heure Température Précipitation Vent Pression Humidité
    00:00 +20°C° 0,5 mm 1 m/s 690 mmHg 98%
    01:00 +18°C° 0,5 mm 0 m/s 690 mmHg 98%
    02:00 +18°C° 0,5 mm 0 m/s 690 mmHg 98%
    03:00 +18°C° 0,1 mm 0 m/s 689 mmHg 98%
    04:00 +18°C° 0,1 mm 0 m/s 689 mmHg 99%
    05:00 +17°C° 0,1 mm 0 m/s 689 mmHg 99%
    06:00 +18°C° 0 mm 0 m/s 690 mmHg 97%
    07:00 +19°C° 0 mm 0 m/s 690 mmHg 95%
    08:00 +22°C° 0 mm 1 m/s 691 mmHg 93%
    09:00 +24°C° 0,2 mm 1 m/s 691 mmHg 83%
    10:00 +26°C° 0,2 mm 1 m/s 692 mmHg 72%
    11:00 +29°C° 0,2 mm 1 m/s 692 mmHg 62%
    12:00 +29°C° 0,5 mm 1 m/s 691 mmHg 64%
    13:00 +29°C° 0,5 mm 1 m/s 690 mmHg 66%
    14:00 +29°C° 0,5 mm 1 m/s 689 mmHg 68%
    15:00 +28°C° 0,7 mm 1 m/s 689 mmHg 75%
    16:00 +27°C° 0,7 mm 1 m/s 689 mmHg 82%
    17:00 +26°C° 0,7 mm 1 m/s 688 mmHg 90%
    18:00 +24°C° 0,2 mm 1 m/s 689 mmHg 92%
    19:00 +21°C° 0,2 mm 0 m/s 689 mmHg 94%
    20:00 +19°C° 0,2 mm 0 m/s 689 mmHg 96%
    21:00 +19°C° 0 mm 0 m/s 689 mmHg 96%
    22:00 +18°C° 0 mm 0 m/s 689 mmHg 96%
    23:00 +18°C° 0 mm 0 m/s 689 mmHg 96%

    24 Juin, Dimanche

    Heure Température Précipitation Vent Pression Humidité
    00:00 +18°C° 0 mm 0 m/s 689 mmHg 97%
    01:00 +18°C° 0 mm 0 m/s 689 mmHg 97%
    02:00 +17°C° 0 mm 0 m/s 688 mmHg 98%
    03:00 +17°C° 0 mm 0 m/s 688 mmHg 98%
    04:00 +17°C° 0 mm 0 m/s 688 mmHg 98%
    05:00 +17°C° 0 mm 0 m/s 688 mmHg 98%
    06:00 +18°C° 0 mm 0 m/s 689 mmHg 95%
    07:00 +20°C° 0 mm 0 m/s 690 mmHg 92%
    08:00 +21°C° 0 mm 0 m/s 691 mmHg 90%
    09:00 +23°C° 0,3 mm 0 m/s 691 mmHg 80%
    10:00 +27°C° 0,3 mm 1 m/s 691 mmHg 69%
    11:00 +30°C° 0,3 mm 1 m/s 691 mmHg 59%
    12:00 +30°C° 0,1 mm 1 m/s 690 mmHg 54%
    13:00 +31°C° 0,1 mm 1 m/s 690 mmHg 49%
    14:00 +32°C° 0,1 mm 1 m/s 689 mmHg 44%
    15:00 +31°C° 0 mm 1 m/s 689 mmHg 50%
    16:00 +30°C° 0 mm 1 m/s 688 mmHg 55%
    17:00 +27°C° 0 mm 0 m/s 688 mmHg 61%
    18:00 +27°C° 0,3 mm 1 m/s 688 mmHg 68%
    19:00 +25°C° 0,3 mm 1 m/s 689 mmHg 75%
    20:00 +23°C° 0,3 mm 1 m/s 689 mmHg 81%
    21:00 +23°C° 0,8 mm 1 m/s 689 mmHg 87%
    22:00 +22°C° 0,8 mm 1 m/s 689 mmHg 92%
    23:00 +21°C° 0,8 mm 1 m/s 690 mmHg 98%

    25 Juin, Lundi

    Heure Température Précipitation Vent Pression Humidité
    00:00 +19°C° 0,3 mm 0 m/s 689 mmHg 98%
    01:00 +18°C° 0,3 mm 0 m/s 688 mmHg 98%
    02:00 +18°C° 0,3 mm 0 m/s 688 mmHg 98%
    03:00 +18°C° 0 mm 0 m/s 688 mmHg 98%
    04:00 +18°C° 0 mm 0 m/s 688 mmHg 98%
    05:00 +18°C° 0 mm 0 m/s 688 mmHg 98%
    06:00 +19°C° 0 mm 0 m/s 689 mmHg 96%
    07:00 +20°C° 0 mm 0 m/s 689 mmHg 94%
    08:00 +21°C° 0 mm 0 m/s 690 mmHg 92%
    09:00 +24°C° 0,4 mm 0 m/s 690 mmHg 82%
    10:00 +26°C° 0,4 mm 0 m/s 691 mmHg 71%
    11:00 +29°C° 0,4 mm 0 m/s 691 mmHg 60%
    12:00 +29°C° 0,4 mm 0 m/s 690 mmHg 55%
    13:00 +30°C° 0,4 mm 0 m/s 689 mmHg 50%
    14:00 +31°C° 0,4 mm 0 m/s 688 mmHg 44%
    15:00 +29°C° 0,2 mm 0 m/s 688 mmHg 50%
    16:00 +28°C° 0,2 mm 0 m/s 688 mmHg 56%
    17:00 +27°C° 0,2 mm 0 m/s 688 mmHg 61%
    18:00 +27°C° 1,2 mm 1 m/s 688 mmHg 71%
    19:00 +24°C° 1,2 mm 1 m/s 688 mmHg 82%
    20:00 +22°C° 1,2 mm 1 m/s 688 mmHg 92%
    21:00 +22°C° 1,2 mm 1 m/s 689 mmHg 94%
    22:00 +21°C° 1,2 mm 1 m/s 689 mmHg 96%
    23:00 +21°C° 1,2 mm 1 m/s 689 mmHg 98%

    26 Juin, Mardi

    Heure Température Précipitation Vent Pression Humidité
    00:00 +21°C° 0,2 mm 1 m/s 689 mmHg 97%
    01:00 +19°C° 0,2 mm 0 m/s 688 mmHg 97%
    02:00 +18°C° 0,2 mm 0 m/s 688 mmHg 97%
    03:00 +18°C° 0 mm 0 m/s 688 mmHg 97%
    04:00 +18°C° 0 mm 0 m/s 688 mmHg 98%
    05:00 +18°C° 0 mm 0 m/s 688 mmHg 98%
    06:00 +19°C° 0,1 mm 0 m/s 689 mmHg 96%
    07:00 +20°C° 0,1 mm 0 m/s 689 mmHg 94%
    08:00 +21°C° 0,1 mm 0 m/s 690 mmHg 92%
    09:00 +23°C° 0,8 mm 0 m/s 690 mmHg 87%
    10:00 +24°C° 0,8 mm 0 m/s 690 mmHg 82%
    11:00 +26°C° 0,8 mm 0 m/s 690 mmHg 76%
    12:00 +26°C° 1,2 mm 0 m/s 689 mmHg 77%
    13:00 +28°C° 1,2 mm 1 m/s 688 mmHg 77%
    14:00 +28°C° 1,2 mm 1 m/s 688 mmHg 78%
    15:00 +27°C° 0,9 mm 1 m/s 687 mmHg 82%
    16:00 +26°C° 0,9 mm 1 m/s 687 mmHg 86%
    17:00 +25°C° 0,9 mm 1 m/s 687 mmHg 90%
    18:00 +24°C° 0,2 mm 1 m/s 687 mmHg 92%
    19:00 +23°C° 0,2 mm 1 m/s 688 mmHg 94%
    20:00 +22°C° 0,2 mm 1 m/s 688 mmHg 95%
    21:00 +21°C° 0,2 mm 1 m/s 688 mmHg 95%
    22:00 +21°C° 0,2 mm 1 m/s 688 mmHg 96%
    23:00 +21°C° 0,2 mm 1 m/s 688 mmHg 96%
    Voir plus